Tracking 23732 objects as of 28-Sep-2021
HD Live streaming from Space Station
objects crossing your sky now

STARLINK-2322

Track STARLINK-2322 now!
10-day predictions
STARLINK-2322 is classified as:


NORAD ID: 47791
Int'l Code: 2021-018E
Perigee: 553.2 km
Apogee: 555.5 km
Inclination: 53.1 °
Period: 95.6 minutes
Semi major axis: 6925 km
RCS: Unknown
Launch date: March 11, 2021
Source: United States (US)
Launch site: AIR FORCE EASTERN TEST RANGE (AFETR)
aabbcc
Your satellite tracking list
Your tracking list is empty




NASA's NSSDC Master Catalog

Two Line Element Set (TLE):
1 47791U 21018E   21270.58379673 -.00000269  00000-0  82679-6 0  9996
2 47791  53.0620 342.5049 0001637 109.1661 250.9505 15.06400879 31813
Source of the keplerian elements: AFSPC